Location: Bratislava
(48.1500°N, 17.1170°E)
Time: 07:43:44
(UTC+02:00)

Mayak - Visible Passes

Search period start: 17 August 2017 00:00
Search period end: 27 August 2017 00:00
Orbit: 585 x 607 km, 97.6° (Epoch: 16 August)

Date Brightness Start Highest point End Pass type
(mag) Time Alt. Az. Time Alt. Az. Time Alt. Az.
17 Aug 0.7 00:04:06 10° NNE 00:06:05 22° NE 00:06:05 22° NE visible
17 Aug 0.4 01:39:49 10° N 01:42:44 27° NW 01:42:44 27° NW visible
18 Aug 0.5 00:13:44 10° NNE 00:15:53 26° NE 00:15:53 26° NE visible
18 Aug 0.6 01:49:48 10° NNW 01:52:32 23° NW 01:52:32 23° NW visible
19 Aug 0.4 00:23:25 10° NNE 00:25:41 29° NE 00:25:41 29° NE visible
19 Aug 0.9 01:59:50 10° NNW 02:02:20 19° NW 02:02:20 19° NW visible
20 Aug 0.3 00:33:08 10° NNE 00:35:29 32° NNE 00:35:29 32° NNE visible
20 Aug 1.0 02:09:57 10° NNW 02:12:08 16° NW 02:12:08 16° NW visible
21 Aug 0.3 00:42:53 10° NNE 00:45:16 33° NNE 00:45:16 33° NNE visible
21 Aug 1.2 02:20:13 10° NNW 02:21:55 13° NW 02:21:55 13° NW visible
22 Aug 0.3 00:52:39 10° NNE 00:55:03 34° N 00:55:03 34° N visible
22 Aug 1.4 02:30:52 10° NW 02:31:42 11° NW 02:31:42 11° NW visible
23 Aug 0.4 01:02:28 10° N 01:04:51 33° N 01:04:51 33° N visible
23 Aug 1.4 23:37:39 10° NE 23:37:59 11° NE 23:37:59 11° NE visible
24 Aug 0.5 01:12:17 10° N 01:14:38 30° NNW 01:14:38 30° NNW visible
24 Aug 1.3 23:47:03 10° NE 23:47:46 13° NE 23:47:46 13° NE visible
25 Aug 0.6 01:22:09 10° N 01:24:25 28° NNW 01:24:25 28° NNW visible
25 Aug 1.2 23:56:35 10° NE 23:57:32 15° NE 23:57:32 15° NE visible
26 Aug 0.8 01:32:03 10° N 01:34:12 24° NNW 01:34:12 24° NNW visible
